Location: Ferchesar
(52.6477°N, 12.4298°E)
Time: 09:59:00
(UTC+01:00)

Vanguard 3 - Pass Details

Date: 09 December 2021
Orbit: 508 x 3260 km, 33.3° (Epoch: 24 January)

Event Time Altitude Azimuth Distance (km) Brightness Sun altitude
Rises 07:55:13 0° 271° (W) 7,221 11.5 -2.6°
Reaches altitude 10° 08:01:49 10° 260° (W) 6,060 11.2 -1.8°
Maximum altitude 08:13:56 22° 219° (SW) 4,473 11.0 -0.3°
Drops below altitude 10° 08:23:27 10° 175° (S) 4,626 11.8 0.8°
Sets 08:27:36 0° 160° (SSE) 5,191 12.5 1.3°
